Temp
12 17 17 16 15 13 12 12 12 12 11 12 12 12 12 12 12 12 12 11 9 11 12 11 11 11 11 11 8 6 5 5 5 5 4 4 3 2 2 2 2 2 2 2 2 3 3 3 2 2 1 1 0 -1 -1 -2 -2 -3 -3 -3 -3 -4 -4 -5 -6 -6 -6 -7 -8 -8 -9 -9 -9 -9 -9 -9 -9 -9 -8 -8 -8 -7 -7 -7 -6 -6
14 18 15 14 14 12 11 11 11 11 10 11 11 12 12 11 12 12 11 10 9 11 12 11 10 10 10 11 8 6 6 5 5 5 5 4 3 3 3 2 2 2 2 1 2 2 3 3 2 1 1 1 -0 -1 -1 -2 -3 -3 -3 -3 -4 -4 -5 -5 -6 -6 -7 -7 -8 -8 -9 -9 -9 -9 -9 -9 -9 -9 -9 -9 -9 -8 -8 -8 -7 -7
16 17 14 13 12 11 10 10 11 11 11 11 11 12 13 12 12 12 10 9 9 11 12 11 11 11 10 9 7 5 6 6 6 5 5 5 4 3 3 3 2 2 2 2 1 2 2 2 2 1 1 0 -0 -1 -2 -2 -3 -3 -3 -4 -4 -5 -5 -6 -6 -7 -7 -8 -8 -9 -9 -9 -9 -10 -10 -10 -10 -10 -9 -9 -9 -9 -9 -9 -8 -7
17 16 13 11 10 11 11 11 12 12 11 12 12 13 14 12 11 13 11 10 10 10 11 10 9 10 10 8 7 5 5 6 5 5 5 4 4 4 4 3 3 3 2 2 2 1 1 1 1 1 1 0 -0 -1 -2 -2 -3 -3 -3 -4 -5 -5 -6 -6 -6 -7 -8 -8 -9 -9 -9 -9 -9 -10 -10 -10 -10 -10 -10 -10 -10 -10 -9 -9 -9 -8
16 13 10 10 11 12 13 12 13 14 14 12 12 13 14 12 11 13 11 9 10 9 8 9 10 12 12 11 10 7 5 5 5 5 5 4 4 3 3 3 3 3 3 3 3 1 1 1 1 1 1 0 -1 -1 -2 -2 -3 -3 -4 -4 -5 -5 -6 -6 -7 -7 -8 -9 -9 -9 -9 -9 -10 -10 -10 -10 -10 -10 -10 -10 -10 -10 -10 -10 -9 -9
14 10 9 12 13 12 13 13 12 13 14 13 13 13 13 13 12 11 9 9 11 11 9 9 13 15 13 13 13 8 5 6 5 5 6 5 4 3 3 3 3 2 2 2 2 2 1 0 1 1 1 0 -1 -1 -2 -2 -3 -3 -4 -5 -5 -6 -6 -7 -7 -8 -9 -9 -9 -9 -9 -10 -10 -11 -11 -11 -11 -11 -11 -11 -11 -10 -10 -10 -10 -10
13 10 10 13 13 12 13 13 11 11 13 14 13 12 12 11 10 9 9 9 12 13 10 9 12 14 13 15 13 6 5 7 6 5 5 5 5 4 3 3 3 2 2 2 1 1 0 0 0 1 1 0 -1 -1 -2 -2 -3 -4 -4 -5 -5 -6 -6 -7 -8 -8 -9 -9 -9 -9 -10 -10 -11 -11 -11 -11 -11 -11 -11 -11 -11 -11 -10 -10 -10 -10
12 12 12 12 13 13 13 13 11 10 12 14 12 10 11 10 9 9 8 9 10 11 10 8 10 11 12 14 9 5 8 9 8 8 6 5 5 4 4 4 3 3 3 2 2 1 -1 -0 0 1 2 1 -0 -1 -2 -3 -3 -4 -5 -5 -6 -6 -7 -8 -8 -9 -9 -9 -9 -10 -10 -11 -11 -11 -11 -12 -12 -12 -12 -12 -12 -11 -11 -11 -11 -10
11 13 13 13 13 14 14 13 11 10 12 13 10 9 9 8 9 8 8 9 8 9 12 10 9 11 13 13 7 5 10 12 12 13 11 9 6 5 4 4 3 3 3 3 2 1 -0 -0 1 2 2 1 -0 -1 -2 -3 -4 -4 -5 -5 -6 -7 -7 -8 -9 -9 -9 -10 -10 -10 -11 -11 -11 -12 -12 -12 -12 -12 -12 -12 -12 -12 -12 -11 -11 -11
11 11 11 12 14 14 13 12 10 10 12 11 9 9 8 7 7 7 8 9 8 11 14 11 10 11 12 14 11 8 10 13 14 14 13 11 7 5 4 4 4 3 3 3 1 1 0 0 2 2 1 0 -1 -2 -2 -3 -4 -5 -5 -6 -6 -7 -8 -9 -9 -9 -10 -10 -10 -11 -11 -12 -12 -12 -12 -12 -12 -12 -13 -13 -12 -12 -12 -12 -12 -12
10 9 8 11 12 12 11 10 9 9 11 10 10 10 10 8 8 7 7 8 10 13 14 10 10 11 11 14 14 12 13 14 15 14 13 11 9 7 5 3 4 3 3 3 1 -0 -0 0 1 1 -0 -1 -1 -2 -3 -4 -5 -5 -6 -6 -7 -8 -9 -9 -9 -10 -10 -11 -11 -11 -12 -12 -12 -12 -12 -13 -13 -13 -13 -13 -13 -13 -13 -12 -12 -12
10 10 10 10 10 9 11 11 8 7 8 10 11 12 13 12 10 10 10 10 13 15 12 9 9 10 11 13 14 13 13 12 12 13 13 13 13 10 6 4 3 3 3 2 2 0 -1 -1 -1 -1 -1 -2 -2 -3 -4 -4 -5 -5 -6 -7 -7 -8 -9 -9 -9 -10 -10 -11 -11 -12 -12 -12 -12 -13 -13 -13 -13 -13 -13 -13 -13 -13 -13 -13 -13 -13
13 12 11 10 9 9 11 13 11 9 10 11 12 12 14 14 12 14 14 12 13 14 10 8 9 10 10 12 13 13 13 11 10 11 12 12 12 11 9 6 3 2 2 2 1 1 -1 -3 -3 -3 -3 -3 -3 -3 -4 -4 -5 -6 -6 -7 -8 -9 -9 -9 -10 -10 -11 -11 -12 -12 -12 -13 -13 -13 -13 -13 -13 -13 -13 -13 -13 -13 -13 -13 -13 -13
15 12 10 11 11 9 11 14 14 13 12 12 12 12 14 14 13 14 13 11 12 12 9 7 9 10 11 13 13 13 14 12 10 9 9 9 9 9 8 6 3 1 1 1 1 1 -1 -2 -3 -3 -3 -3 -3 -3 -4 -4 -5 -6 -6 -7 -8 -9 -10 -10 -11 -11 -11 -12 -12 -12 -13 -13 -13 -13 -13 -13 -13 -13 -13 -13 -14 -14 -14 -14 -14 -14
17 16 13 12 12 10 10 11 12 12 11 11 10 10 13 13 13 13 13 12 12 11 8 8 9 12 13 14 13 13 12 10 8 7 5 5 5 4 4 3 2 2 1 0 0 -0 -1 -2 -2 -2 -3 -3 -3 -3 -4 -5 -5 -6 -7 -8 -9 -10 -10 -11 -11 -11 -12 -12 -12 -13 -13 -13 -14 -14 -14 -14 -13 -14 -14 -14 -14 -14 -14 -14 -14 -14
15 17 12 9 9 9 11 9 8 10 11 9 7 9 12 12 12 12 10 9 9 8 7 8 10 11 12 13 11 9 9 8 7 6 5 6 5 2 3 3 3 3 1 0 0 -0 -1 -2 -2 -2 -3 -3 -3 -3 -4 -5 -6 -6 -7 -8 -9 -10 -10 -11 -11 -12 -12 -13 -13 -13 -13 -14 -14 -14 -14 -14 -14 -14 -14 -14 -14 -15 -15 -15 -15 -15
15 16 11 9 9 8 9 8 8 10 12 10 9 11 10 8 10 11 8 6 6 7 9 9 11 11 11 14 13 10 11 12 11 9 8 8 6 3 4 4 3 3 2 1 0 -0 -1 -2 -3 -2 -3 -3 -3 -4 -4 -5 -6 -6 -8 -9 -10 -10 -11 -11 -12 -12 -13 -13 -13 -14 -14 -14 -14 -14 -14 -14 -15 -15 -15 -15 -15 -15 -15 -15 -15 -15
14 15 11 9 11 9 6 7 8 8 9 10 11 11 8 7 9 10 9 9 8 9 10 8 10 12 11 13 14 12 14 15 14 13 10 8 6 5 5 4 4 3 2 1 1 -0 -2 -2 -3 -3 -3 -3 -3 -4 -4 -5 -6 -7 -8 -9 -10 -10 -11 -12 -12 -12 -13 -13 -14 -14 -14 -15 -15 -15 -15 -15 -15 -15 -15 -15 -16 -16 -16 -16 -16 -16
11 15 12 7 9 9 6 8 10 8 7 9 10 9 8 10 11 9 9 11 10 9 10 8 8 9 10 12 14 15 15 15 14 13 11 11 10 8 6 5 4 3 2 1 1 -0 -2 -3 -3 -3 -3 -3 -4 -4 -5 -5 -6 -8 -9 -10 -10 -11 -11 -12 -12 -13 -13 -14 -14 -14 -15 -15 -15 -15 -15 -15 -16 -16 -16 -16 -16 -16 -16 -16 -16 -16
10 14 14 8 7 9 9 10 12 10 8 8 8 8 8 9 10 9 8 9 10 10 10 9 8 10 12 12 14 15 14 14 13 12 12 12 11 9 8 6 5 4 3 2 1 0 -1 -3 -3 -3 -3 -3 -4 -4 -5 -6 -7 -8 -9 -10 -10 -11 -12 -12 -13 -13 -14 -14 -14 -15 -15 -15 -15 -15 -15 -16 -16 -16 -16 -16 -16 -16 -16 -17 -17 -17
10 12 14 11 8 9 11 11 11 12 10 9 9 9 9 8 7 8 7 7 9 10 9 8 9 12 13 12 13 14 13 13 12 11 12 12 10 9 8 6 5 4 3 2 1 0 -1 -3 -3 -3 -3 -4 -4 -5 -6 -7 -8 -9 -9 -10 -11 -11 -12 -12 -13 -13 -14 -14 -15 -15 -15 -15 -16 -16 -16 -16 -16 -17 -17 -17 -17 -17 -17 -17 -17 -17
10 11 12 12 11 12 13 9 8 9 10 10 11 10 10 9 8 9 9 6 6 8 8 8 9 11 12 12 13 13 13 13 12 11 11 11 10 9 8 6 5 4 4 3 2 1 -1 -3 -3 -4 -4 -4 -5 -6 -7 -7 -8 -9 -10 -10 -11 -11 -12 -13 -13 -14 -14 -15 -15 -15 -16 -16 -16 -16 -16 -17 -17 -17 -17 -17 -17 -17 -18 -18 -18 -18
9 9 10 11 12 12 10 6 5 6 7 8 9 8 8 9 10 11 11 8 6 6 5 5 6 10 12 13 13 13 13 12 11 9 9 10 9 8 8 6 4 4 3 3 2 0 -2 -3 -3 -4 -5 -5 -6 -7 -7 -8 -9 -9 -10 -10 -11 -12 -12 -13 -13 -14 -14 -15 -15 -15 -16 -16 -16 -17 -17 -17 -17 -18 -18 -18 -18 -18 -18 -18 -18 -18
8 9 10 11 12 10 8 5 5 5 6 8 8 6 7 8 9 9 9 7 7 7 6 5 6 10 12 11 11 12 10 9 9 8 8 8 8 7 7 6 5 4 3 2 1 -1 -3 -3 -4 -5 -6 -6 -7 -7 -8 -8 -9 -10 -10 -11 -11 -12 -12 -13 -13 -14 -15 -15 -15 -16 -16 -16 -17 -17 -17 -18 -18 -18 -18 -18 -18 -18 -19 -19 -19 -19
10 11 11 11 13 12 11 10 9 8 7 8 8 6 6 7 6 6 5 5 7 8 8 8 8 10 11 10 11 11 10 9 10 9 8 7 7 7 7 6 5 4 2 2 1 -1 -2 -4 -5 -5 -6 -6 -7 -8 -8 -9 -9 -10 -10 -11 -11 -12 -12 -13 -14 -14 -15 -15 -16 -16 -16 -17 -17 -17 -18 -18 -18 -18 -19 -19 -19 -19 -19 -19 -19 -19
9 10 10 12 13 13 13 14 13 11 9 8 8 6 6 6 6 7 7 6 7 7 6 8 9 11 12 12 12 12 10 10 10 10 9 8 8 7 7 6 5 3 3 2 1 -1 -2 -3 -4 -5 -5 -6 -7 -8 -8 -9 -9 -10 -10 -11 -11 -12 -13 -14 -14 -15 -15 -16 -16 -16 -17 -17 -17 -18 -18 -18 -19 -19 -19 -19 -19 -19 -19 -19 -19 -19
8 8 9 11 12 12 14 13 11 10 10 10 9 8 6 6 6 7 7 7 7 6 5 8 9 9 10 11 11 11 10 10 10 10 10 9 9 8 7 6 5 4 3 2 0 -1 -2 -3 -4 -5 -5 -6 -7 -7 -8 -9 -9 -10 -10 -11 -12 -12 -13 -14 -14 -15 -15 -16 -16 -17 -17 -17 -18 -18 -18 -19 -19 -19 -19 -19 -19 -19 -19 -19 -19 -19
8 9 8 9 10 10 11 11 8 8 8 9 9 8 7 5 5 6 7 7 8 7 7 9 9 8 9 10 10 10 10 10 10 10 10 9 8 8 7 6 5 4 3 1 0 -1 -2 -2 -3 -4 -5 -5 -6 -7 -8 -8 -9 -9 -10 -11 -12 -12 -13 -14 -15 -15 -16 -16 -17 -17 -17 -17 -18 -18 -18 -19 -19 -19 -19 -20 -20 -19 -19 -19 -19 -19
8 9 7 7 8 9 8 8 8 7 7 8 8 8 7 5 5 6 7 7 7 7 9 10 9 8 9 10 10 10 10 10 9 9 8 8 7 7 7 6 6 5 4 2 1 -0 -1 -2 -2 -3 -4 -5 -6 -7 -8 -9 -9 -10 -10 -11 -12 -13 -13 -14 -15 -15 -16 -16 -17 -17 -17 -18 -18 -18 -19 -19 -19 -20 -20 -20 -20 -20 -20 -20 -20 -19
7 8 6 5 7 8 8 7 7 6 7 7 7 7 6 6 5 6 6 7 6 7 8 9 8 8 8 9 9 9 9 8 8 7 7 8 8 8 7 7 6 6 5 4 2 1 -1 -1 -2 -3 -4 -5 -6 -7 -8 -9 -9 -10 -11 -12 -12 -13 -14 -14 -15 -16 -16 -17 -17 -17 -17 -18 -18 -19 -19 -19 -20 -20 -20 -20 -20 -20 -20 -20 -20 -19
7 8 6 5 7 8 8 7 7 6 6 7 7 7 7 6 5 5 5 5 5 5 6 6 5 6 7 8 8 8 8 7 7 8 8 9 9 8 8 7 7 6 6 5 3 2 1 -1 -1 -2 -4 -5 -6 -7 -8 -8 -9 -10 -11 -12 -12 -13 -13 -14 -15 -16 -16 -17 -17 -17 -18 -18 -19 -19 -19 -20 -20 -20 -20 -20 -20 -20 -20 -20 -20 -20
6 6 6 6 8 9 7 7 8 7 7 7 9 9 8 7 6 6 4 4 5 6 6 5 5 7 8 9 8 8 8 8 8 9 9 9 9 8 8 7 7 7 6 6 5 3 2 1 -1 -2 -3 -4 -5 -7 -7 -8 -9 -11 -11 -12 -12 -12 -13 -14 -15 -16 -16 -17 -17 -17 -18 -18 -19 -19 -19 -20 -20 -20 -20 -20 -21 -21 -21 -21 -20 -20
4 6 7 6 8 9 7 6 7 8 9 11 11 10 10 8 8 7 6 5 5 6 7 7 8 9 10 9 8 8 9 8 8 8 8 8 8 7 7 7 6 6 6 6 6 5 4 2 0 -2 -3 -4 -5 -6 -6 -7 -9 -10 -10 -10 -11 -12 -14 -15 -15 -16 -16 -17 -17 -18 -18 -18 -19 -19 -20 -20 -20 -20 -21 -21 -21 -21 -21 -21 -20 -20
2 5 6 5 7 9 8 7 7 9 12 13 11 9 9 9 8 9 10 9 7 6 8 9 9 9 8 8 8 8 8 8 8 7 7 7 6 6 6 6 6 6 6 7 6 6 5 3 0 -1 -2 -3 -4 -5 -5 -6 -8 -8 -9 -10 -11 -12 -14 -15 -15 -16 -17 -17 -17 -18 -18 -19 -19 -20 -20 -20 -20 -21 -21 -21 -21 -21 -21 -21 -21 -21
4 5 5 4 6 7 7 8 10 12 13 12 9 8 8 7 8 9 10 11 9 7 7 8 8 8 8 7 7 7 7 7 7 7 6 6 6 6 6 6 6 6 7 7 6 6 5 3 0 -1 -2 -3 -4 -5 -6 -7 -7 -8 -9 -10 -12 -13 -14 -15 -15 -16 -17 -17 -18 -18 -18 -19 -19 -20 -20 -21 -21 -21 -21 -22 -22 -22 -21 -21 -21 -21
5 6 5 5 5 7 7 8 10 12 12 10 9 9 7 7 9 8 8 10 10 8 8 7 7 7 7 7 7 7 7 6 6 6 7 7 7 6 6 6 6 6 6 6 5 5 5 3 1 -0 -1 -2 -4 -5 -6 -7 -8 -9 -10 -11 -12 -13 -14 -15 -16 -17 -17 -18 -18 -18 -19 -19 -20 -20 -21 -21 -21 -22 -22 -22 -22 -22 -21 -22 -22 -21
6 6 6 6 6 6 7 7 8 9 10 11 10 9 8 8 8 7 7 9 9 9 7 7 7 7 6 6 6 6 6 5 5 6 7 7 7 6 6 6 6 5 5 4 4 4 4 3 2 0 -1 -3 -4 -5 -6 -7 -8 -10 -11 -12 -13 -14 -15 -16 -16 -17 -17 -18 -18 -18 -19 -19 -20 -20 -21 -21 -22 -22 -22 -22 -22 -22 -22 -22 -22 -22
4 5 6 7 6 5 5 7 7 8 11 12 11 8 7 6 6 6 6 7 9 8 7 7 6 6 6 6 6 5 5 4 4 6 7 7 6 6 5 5 5 5 4 4 4 3 3 2 1 -1 -2 -4 -5 -5 -6 -8 -9 -11 -12 -13 -14 -15 -15 -16 -16 -17 -17 -18 -18 -18 -19 -19 -20 -20 -21 -21 -22 -22 -22 -22 -23 -23 -22 -22 -22 -22
4 4 5 6 6 5 5 7 7 8 11 11 9 8 6 4 4 5 6 7 8 7 7 6 6 5 6 5 5 5 4 3 4 5 6 6 5 5 5 4 4 4 4 4 3 2 2 1 -0 -2 -4 -5 -5 -5 -7 -8 -10 -11 -13 -13 -14 -15 -16 -16 -16 -16 -17 -17 -18 -18 -19 -19 -20 -21 -21 -21 -22 -22 -22 -22 -23 -23 -23 -22 -22 -22
4 4 4 5 5 4 5 6 6 7 9 9 8 8 5 3 4 6 6 7 8 7 6 6 5 5 5 5 4 4 3 3 3 4 5 5 5 4 4 4 4 3 3 3 3 2 1 -0 -2 -3 -5 -5 -5 -5 -8 -9 -10 -12 -13 -13 -14 -15 -16 -15 -15 -15 -16 -17 -18 -18 -19 -19 -20 -21 -21 -22 -22 -22 -22 -23 -23 -23 -23 -23 -22 -22
3 3 3 3 4 4 4 5 5 7 8 8 8 7 5 4 5 6 6 7 7 6 6 6 5 5 5 4 4 4 4 4 4 4 5 4 4 4 4 3 3 3 3 2 2 1 0 -1 -3 -4 -4 -4 -4 -6 -8 -9 -12 -13 -13 -14 -15 -15 -14 -13 -14 -15 -17 -17 -18 -19 -19 -20 -20 -21 -21 -22 -22 -22 -23 -23 -23 -23 -24 -23 -23 -23
5 4 3 3 4 3 3 3 5 7 8 7 7 7 5 6 6 6 6 7 6 6 6 5 5 5 4 4 4 3 4 4 4 4 4 3 3 3 3 2 2 2 2 2 2 1 -0 -2 -3 -4 -4 -4 -5 -7 -8 -10 -12 -13 -13 -15 -15 -13 -12 -13 -14 -16 -17 -18 -18 -19 -19 -20 -20 -21 -21 -22 -22 -23 -23 -23 -24 -24 -24 -24 -23 -23
7 7 7 5 4 3 3 4 6 8 8 7 7 7 7 7 7 6 7 7 6 5 5 5 5 4 4 4 4 3 4 3 3 3 3 3 3 2 2 2 2 1 1 1 1 1 -0 -2 -3 -4 -4 -4 -6 -7 -8 -10 -12 -12 -14 -14 -12 -11 -13 -14 -15 -16 -17 -18 -18 -19 -19 -20 -21 -21 -22 -22 -22 -23 -23 -24 -24 -24 -24 -24 -24 -24
7 8 9 7 5 5 6 7 9 9 8 7 7 7 7 7 7 7 6 5 5 5 5 4 4 4 4 4 3 3 3 3 3 3 2 2 2 2 2 2 1 1 1 1 1 1 -0 -2 -3 -3 -3 -4 -6 -7 -8 -10 -12 -12 -13 -13 -11 -12 -14 -15 -15 -17 -18 -18 -19 -19 -20 -20 -21 -21 -22 -22 -23 -23 -24 -24 -24 -25 -24 -24 -24 -24
8 8 8 7 7 7 8 8 9 9 8 7 7 7 7 7 7 6 5 5 5 5 4 4 4 4 4 3 3 3 3 2 2 2 2 2 2 1 1 1 1 1 1 0 1 1 -0 -1 -3 -4 -4 -4 -6 -7 -8 -10 -11 -13 -13 -11 -11 -13 -15 -15 -16 -17 -18 -18 -19 -20 -20 -21 -21 -22 -22 -23 -23 -24 -24 -24 -25 -25 -25 -24 -24 -25
7 6 7 7 8 7 7 8 8 7 7 7 7 7 7 6 6 6 5 5 4 4 4 4 3 3 3 3 3 2 2 2 2 1 1 1 1 1 1 1 0 1 0 0 0 0 -0 -1 -2 -4 -5 -5 -5 -7 -8 -9 -11 -12 -11 -10 -12 -14 -14 -15 -17 -18 -18 -19 -20 -20 -21 -21 -22 -22 -23 -23 -23 -24 -24 -25 -25 -25 -25 -25 -25 -25
6 6 6 7 7 6 7 8 7 6 7 6 6 6 6 6 6 5 5 4 4 4 4 3 3 3 3 2 2 1 1 1 1 1 1 1 1 1 0 0 0 0 0 -0 -0 -0 -1 -2 -2 -4 -5 -5 -5 -6 -7 -9 -10 -11 -10 -11 -13 -14 -14 -16 -17 -18 -19 -20 -20 -21 -21 -22 -22 -23 -23 -23 -24 -24 -25 -25 -25 -26 -26 -26 -25 -25
7 7 7 7 6 6 6 7 7 6 6 6 6 6 5 5 5 5 4 4 3 3 3 3 3 2 2 2 1 1 1 1 1 1 0 0 0 0 0 -0 -0 -0 0 0 -0 -1 -1 -2 -2 -3 -4 -5 -4 -5 -6 -8 -9 -10 -11 -12 -13 -14 -15 -16 -17 -18 -19 -19 -20 -21 -21 -22 -23 -23 -23 -24 -24 -24 -25 -25 -25 -26 -26 -25 -25 -25
6 7 6 5 5 5 5 6 6 5 5 6 6 5 5 5 4 4 3 3 3 3 2 2 2 2 1 1 1 0 0 0 0 0 0 -0 -0 -0 -0 -0 -0 -0 -0 -0 -1 -1 -1 -2 -3 -3 -4 -4 -4 -4 -6 -7 -8 -9 -10 -12 -13 -15 -15 -16 -17 -18 -19 -20 -21 -21 -22 -22 -23 -23 -24 -24 -24 -25 -25 -25 -25 -25 -25 -25 -24 -24
5 6 6 4 4 4 4 5 5 4 4 4 5 4 4 4 3 3 3 2 2 2 2 1 1 1 1 1 1 0 -0 0 0 0 -0 -0 -0 -0 -1 -1 -1 -1 -1 -1 -1 -1 -2 -2 -2 -3 -4 -4 -4 -5 -6 -7 -7 -8 -10 -12 -13 -15 -16 -16 -18 -19 -20 -20 -21 -22 -22 -23 -23 -24 -24 -24 -25 -25 -25 -25 -25 -25 -25 -25 -24 -24
6 6 5 4 4 4 5 5 4 3 3 4 4 4 4 3 3 2 2 2 2 1 1 1 0 0 0 0 1 0 -0 -0 -0 -0 -0 -1 -0 -0 -1 -1 -1 -1 -1 -1 -1 -2 -2 -2 -2 -3 -3 -4 -4 -5 -6 -6 -7 -8 -10 -11 -13 -15 -16 -17 -18 -20 -21 -21 -22 -22 -23 -23 -24 -24 -25 -25 -25 -26 -26 -26 -25 -25 -25 -24 -24 -23
Height
856 850 853 857 862 868 870 873 872 873 877 875 875 874 873 873 869 865 865 867 873 865 854 855 856 853 850 851 858 863 865 867 865 864 864 864 865 864 864 863 861 859 856 856 857 857 857 857 857 858 857 857 857 856 856 855 854 854 853 852 852 852 850 850 849 848 847 846 844 843 841 840 838 837 835 833 832 830 829 828 827 825 823 821 819 818
855 852 861 865 866 871 873 877 876 874 877 877 875 872 873 875 868 863 868 869 872 865 853 856 857 851 850 848 853 862 863 861 859 859 859 859 861 861 860 859 857 856 855 855 855 854 855 855 855 856 855 854 855 854 854 853 852 851 850 850 850 850 849 848 847 846 845 844 843 841 840 838 837 835 834 832 831 829 828 827 826 824 822 821 819 816
856 856 863 867 870 875 877 878 875 873 877 876 876 872 867 871 868 863 870 873 872 866 853 855 854 843 843 849 853 858 856 853 854 854 854 855 857 857 856 855 855 854 853 853 852 851 852 852 852 852 852 852 852 852 851 850 850 849 848 849 848 848 847 846 845 845 844 842 842 840 838 837 835 834 832 831 830 829 827 826 824 823 821 820 818 815
855 859 866 872 875 873 872 875 872 870 872 872 873 868 863 872 873 862 865 871 870 870 862 862 862 846 840 847 851 856 855 853 854 853 854 855 853 851 851 852 852 851 850 849 849 849 849 849 850 849 849 850 849 849 848 848 847 846 847 847 847 846 845 844 844 843 842 841 840 838 837 835 833 832 831 830 829 828 826 825 823 822 820 819 817 815
856 865 872 873 872 869 868 869 868 863 863 870 871 865 862 869 873 865 868 873 869 871 871 868 860 840 833 837 839 849 856 853 853 853 851 852 850 850 851 849 848 846 846 846 845 845 846 846 846 846 846 847 846 846 845 845 845 844 845 845 845 844 842 842 842 841 840 839 838 836 835 833 832 830 829 828 827 826 825 823 822 821 820 818 817 815
861 871 873 867 866 869 866 865 869 865 862 866 865 863 862 863 869 871 875 878 866 859 866 867 850 830 828 830 829 846 856 849 851 852 846 846 848 850 848 844 844 844 843 843 842 841 842 842 842 843 843 843 843 843 843 842 843 843 843 844 842 841 841 840 840 839 839 837 836 834 833 831 830 828 827 826 825 824 823 822 821 820 819 818 816 815
865 872 872 866 865 868 866 867 872 873 868 864 862 864 866 869 873 875 879 878 861 852 863 869 854 838 830 820 829 852 855 847 849 849 844 843 844 844 843 839 839 840 839 839 839 838 838 838 839 839 839 839 839 840 840 840 841 841 841 841 840 839 839 839 838 838 837 835 834 832 831 829 828 826 825 824 824 823 822 821 819 818 817 816 816 814
866 867 867 866 866 866 864 865 871 875 869 861 866 870 871 874 874 876 880 875 867 862 865 870 863 854 839 824 842 859 844 835 838 837 839 839 838 838 836 835 834 834 835 835 834 834 835 834 834 834 834 836 836 837 838 838 838 839 839 838 837 837 837 837 836 836 835 833 831 830 829 828 826 825 824 823 822 821 820 819 818 817 816 815 815 813
868 862 862 864 864 864 862 863 870 875 867 861 871 876 874 877 875 879 880 875 882 870 852 862 866 857 841 826 846 859 837 825 822 818 822 825 829 832 830 830 830 829 829 830 830 829 830 830 829 830 832 833 834 834 835 835 836 837 836 835 835 835 835 835 834 833 832 831 829 828 827 826 824 823 822 821 820 820 818 817 816 815 814 814 813 812
868 866 867 865 862 861 861 866 871 871 866 865 874 875 876 882 880 882 879 872 881 865 841 856 863 853 840 820 830 847 833 820 814 810 813 816 823 828 826 826 825 826 826 825 826 826 825 827 827 828 829 830 830 832 832 833 834 834 833 833 832 833 833 832 832 831 830 828 827 826 825 823 823 821 821 820 819 818 817 816 815 814 813 812 812 811
870 873 873 868 863 865 866 870 875 873 869 867 869 867 867 876 878 881 883 877 868 848 842 861 864 857 846 820 815 824 816 809 807 808 812 813 816 820 822 823 821 822 822 822 823 823 823 824 825 826 826 827 828 829 830 830 831 830 830 830 830 830 830 830 829 828 827 826 824 824 823 821 821 820 819 818 817 816 815 815 814 812 812 811 811 810
870 868 868 868 868 871 867 867 874 878 876 869 866 862 856 860 867 865 868 869 852 836 848 868 868 865 853 823 809 811 811 812 812 807 806 806 807 811 816 819 819 819 818 819 820 820 821 822 823 823 823 824 826 826 827 827 828 828 827 827 827 827 828 827 826 825 824 823 822 821 821 819 819 818 817 816 815 814 813 813 812 811 810 810 809 809
861 863 867 868 869 871 865 861 866 871 871 866 863 863 854 853 858 849 849 858 850 843 859 871 866 860 848 822 809 809 808 811 815 811 807 806 806 807 812 814 816 817 817 817 818 817 819 819 819 820 820 821 822 823 824 824 824 825 824 825 825 825 825 824 823 822 821 820 819 819 818 817 817 816 815 814 813 812 811 811 810 809 809 808 808 807
852 861 868 864 863 870 866 859 858 860 864 863 862 863 856 857 862 853 855 865 856 849 864 878 871 853 833 814 805 804 801 804 812 814 812 812 810 808 810 813 815 816 815 815 815 814 815 815 815 816 816 818 819 819 821 821 821 822 821 822 822 822 822 821 820 819 818 818 817 817 816 815 815 814 813 812 811 810 809 808 808 808 807 807 806 806
852 849 858 861 862 867 867 865 864 863 866 869 874 873 860 859 861 855 856 856 851 859 872 876 863 837 816 803 800 802 803 809 813 815 818 817 815 815 814 815 814 813 813 812 812 812 810 811 811 812 813 814 815 816 817 817 818 818 819 819 819 819 818 817 817 816 816 815 815 814 814 813 812 811 811 810 809 808 807 806 806 806 805 805 805 804
860 848 859 869 869 869 866 871 875 868 866 875 883 875 862 862 862 864 874 874 877 884 878 866 848 829 816 802 803 810 808 809 812 813 817 811 811 818 815 812 811 809 810 810 809 809 807 808 809 808 810 810 811 813 813 814 815 815 816 816 816 816 815 814 814 813 813 812 812 812 811 811 810 809 808 807 806 805 805 804 804 804 803 803 803 802
858 850 865 872 869 872 871 872 876 867 862 873 876 866 870 879 869 865 881 896 902 887 864 855 838 824 820 800 795 808 801 796 802 803 807 806 808 815 811 807 807 805 806 806 805 805 804 805 805 805 806 807 807 809 809 810 811 811 813 813 813 813 811 811 810 810 810 810 810 809 809 808 807 806 805 804 804 803 803 802 802 802 801 801 800 800
861 852 864 872 864 871 879 875 875 875 870 869 867 866 877 884 876 874 876 879 887 875 855 857 842 825 827 808 790 797 794 788 791 794 800 805 807 810 806 803 802 801 802 802 801 802 801 802 802 802 802 803 804 805 806 807 807 808 810 810 810 809 808 808 807 807 807 807 807 806 806 805 804 804 803 802 802 801 800 800 800 799 799 798 798 798
872 854 859 878 871 869 879 873 866 875 878 870 868 874 875 866 865 878 876 861 868 869 853 856 858 841 830 814 793 788 788 787 789 793 796 796 796 800 800 798 798 798 799 799 798 798 798 798 798 798 799 800 801 802 802 804 805 806 806 806 806 805 805 805 804 805 805 804 804 803 803 803 802 801 800 800 799 799 798 798 797 797 796 796 795 795
876 860 854 873 878 871 872 867 859 865 876 877 874 877 877 872 869 875 879 871 867 867 857 853 851 828 809 804 793 784 786 788 790 793 792 788 789 793 793 793 794 794 795 794 794 794 794 794 794 794 795 796 797 798 799 800 801 802 803 803 802 802 802 802 801 801 801 801 801 801 800 800 799 798 798 798 797 797 796 796 795 794 794 793 793 793
875 868 856 863 876 871 860 859 857 854 864 871 871 873 874 879 884 879 881 884 871 863 866 863 842 810 793 796 791 786 788 789 790 792 789 787 788 789 790 791 790 790 790 790 790 790 789 790 790 791 792 793 794 795 796 797 798 798 799 799 799 798 798 798 798 798 798 798 798 798 797 797 796 796 795 795 795 794 794 793 793 792 791 790 790 790
871 871 864 860 862 855 849 861 868 862 862 862 859 863 864 868 876 869 869 885 885 872 869 870 851 810 786 789 790 788 789 787 789 792 788 787 787 786 788 788 788 788 786 785 786 786 786 786 787 788 789 790 790 791 792 793 794 795 795 795 795 795 795 794 794 794 794 795 795 795 794 793 793 793 793 793 792 791 791 790 790 789 788 787 786 786
876 876 872 862 854 852 856 871 877 872 872 868 862 866 868 866 863 854 853 869 884 884 883 890 873 817 781 786 789 787 789 789 791 795 792 789 787 786 785 785 786 785 783 783 783 782 783 782 783 785 785 786 786 787 788 789 790 790 790 791 791 791 791 790 790 791 791 791 791 791 791 790 790 790 790 790 789 788 788 788 787 787 785 784 783 783
876 874 870 859 851 855 866 875 877 876 874 867 865 872 873 865 861 860 863 869 872 873 876 886 867 809 780 792 792 789 796 796 795 797 794 791 788 786 784 782 782 782 780 780 780 779 780 780 781 782 781 782 783 783 784 785 786 786 786 787 787 787 787 786 787 787 787 788 788 788 788 787 787 787 787 787 786 785 785 785 785 784 783 781 780 780
870 867 866 859 849 847 851 856 860 865 869 863 861 871 870 867 874 876 879 882 872 859 858 863 844 800 784 795 792 790 797 793 790 792 791 791 788 783 781 779 779 779 778 777 777 777 777 777 777 777 777 778 778 778 780 780 781 782 782 783 783 783 783 783 783 783 784 785 785 785 785 784 784 784 784 783 783 782 782 782 782 781 780 778 777 776
870 868 866 858 851 848 841 837 840 846 858 860 860 868 869 869 871 866 868 876 867 860 862 853 824 792 783 790 788 788 793 789 786 784 784 786 784 780 779 777 776 777 774 773 773 773 774 773 773 773 772 773 773 774 775 775 776 777 777 778 779 779 779 779 779 780 780 781 782 781 781 781 780 780 780 780 780 779 779 779 779 778 777 775 774 773
876 876 871 860 853 849 836 835 847 853 853 851 851 859 866 870 871 866 867 866 858 862 861 839 820 808 797 793 791 790 791 788 784 781 779 779 778 777 776 773 773 773 769 769 770 770 770 769 768 768 767 767 768 768 769 770 771 772 773 774 774 775 776 776 776 776 776 777 778 778 778 777 777 777 777 777 777 776 776 776 776 775 774 773 771 771
876 872 872 868 860 852 843 844 857 863 857 850 849 853 860 869 874 870 863 851 847 855 843 818 820 826 809 795 794 793 790 787 784 782 779 777 777 775 773 771 770 768 766 767 767 766 766 765 763 763 762 762 763 763 764 765 766 767 769 769 770 771 772 772 772 772 773 773 773 774 774 774 774 774 774 774 774 773 773 773 772 772 771 770 769 768
877 870 873 874 863 856 858 858 861 864 861 856 853 853 858 867 871 863 852 845 847 846 826 808 817 823 808 797 796 793 790 788 786 784 781 778 777 774 770 768 765 763 763 763 763 762 762 760 758 757 757 757 758 759 759 760 761 763 764 765 766 766 767 768 768 768 769 769 769 769 770 770 770 770 770 771 771 770 770 769 769 769 768 768 766 765
878 870 876 882 870 860 859 860 863 865 862 856 853 853 856 859 861 857 848 845 848 843 827 819 822 821 809 801 797 793 791 792 791 787 782 777 773 769 766 764 762 760 759 758 758 758 757 755 753 752 752 753 753 753 754 754 756 757 758 760 761 761 762 763 764 764 764 764 764 765 766 766 767 767 767 768 768 767 767 766 766 766 765 765 764 763
878 871 879 884 871 858 857 859 860 862 862 855 846 844 849 853 856 858 855 852 854 848 837 834 837 829 811 800 799 797 794 794 792 786 779 772 768 768 765 763 761 757 755 754 753 752 751 750 748 747 747 746 745 746 747 748 750 751 752 754 754 756 757 758 759 759 759 760 760 761 762 762 763 763 764 764 764 764 763 762 762 762 762 762 761 760
881 877 880 881 867 854 858 861 855 855 857 847 833 829 837 846 848 849 852 853 848 839 834 837 836 821 802 795 797 796 793 793 789 784 777 769 766 767 765 762 758 754 752 750 747 747 746 744 743 741 740 739 738 739 740 741 744 745 745 746 748 750 752 753 754 754 754 755 756 757 758 758 758 759 760 760 761 761 760 759 759 758 758 758 758 757
889 879 875 880 868 851 857 863 859 853 839 822 819 823 827 833 836 836 838 840 838 833 828 824 816 803 796 798 797 792 791 790 788 784 778 772 768 766 763 760 758 754 751 748 745 743 741 738 737 735 732 732 732 731 732 735 737 737 737 739 742 745 747 748 749 749 749 750 751 752 753 754 754 755 756 757 757 757 757 756 755 755 755 755 755 755
894 883 880 886 870 850 855 861 854 843 822 808 819 828 826 828 829 826 821 818 822 828 822 812 807 803 803 802 798 795 792 790 789 785 779 775 772 767 761 758 757 753 749 745 742 739 737 734 731 729 728 727 725 725 727 729 730 731 732 734 737 739 741 743 744 744 745 746 747 748 749 750 750 751 752 753 754 754 754 753 752 751 751 752 752 752
888 883 883 888 878 862 861 857 839 822 811 813 824 830 829 830 827 823 818 809 813 822 819 814 812 808 806 804 801 798 792 787 787 782 776 773 771 769 765 759 755 752 747 743 740 736 733 731 728 726 723 721 720 722 723 724 726 728 729 731 732 734 736 737 739 740 741 742 743 745 745 746 747 747 748 749 750 751 750 750 749 748 748 749 749 748
879 880 880 883 880 867 860 856 839 820 814 818 823 825 829 830 824 823 820 809 807 815 817 816 813 809 807 804 799 795 790 785 782 777 773 771 769 768 767 761 756 753 748 744 741 736 732 729 726 723 720 718 718 719 719 720 722 724 726 727 728 729 731 733 735 736 737 738 739 740 741 742 743 744 745 746 746 747 747 746 746 745 745 746 745 745
876 877 875 876 876 871 867 863 850 833 821 816 817 823 829 828 826 828 826 813 807 813 817 815 812 808 805 802 798 795 790 784 777 770 767 768 768 768 766 762 759 755 749 745 741 736 732 728 724 722 719 718 718 716 715 717 719 722 724 724 725 726 727 729 730 731 733 734 735 736 738 739 740 741 741 742 743 743 743 743 743 743 743 743 742 742
879 876 872 869 873 878 875 865 855 841 822 811 817 827 832 833 834 835 833 821 810 813 816 814 813 810 805 802 799 794 791 787 778 767 764 767 767 766 764 760 757 753 749 745 740 735 731 727 723 722 720 719 717 714 714 716 717 719 721 721 722 723 724 724 724 725 728 729 730 732 734 735 737 738 738 739 739 739 740 740 741 741 741 740 740 739
882 882 879 875 875 880 875 864 859 847 824 815 824 830 833 839 837 835 834 823 813 814 817 815 815 811 806 804 801 797 797 796 783 768 764 766 765 763 761 757 753 749 746 742 739 735 729 725 723 721 720 719 716 713 713 715 716 717 718 717 718 719 719 718 717 718 721 724 726 729 730 732 733 734 735 736 736 736 737 738 738 738 738 738 737 737
882 882 883 879 877 881 880 872 866 851 830 824 829 830 836 842 837 833 831 820 813 817 819 816 815 812 807 806 804 801 802 799 787 774 768 767 764 761 759 755 751 747 743 739 736 732 727 724 722 720 719 716 712 711 713 714 714 714 713 713 716 715 712 709 710 713 717 720 723 725 726 728 729 730 732 733 733 734 734 735 735 736 735 735 735 735
887 888 889 887 881 884 885 877 867 851 835 831 833 834 837 837 833 835 834 824 817 817 817 816 816 812 808 806 804 802 799 795 788 779 773 770 766 760 757 754 750 746 743 738 734 729 725 722 720 718 716 713 711 712 713 712 712 711 708 710 712 707 702 703 708 712 714 717 719 720 722 724 725 726 728 730 731 732 732 732 733 733 733 733 733 732
877 883 888 888 883 885 888 883 869 849 836 835 836 835 834 835 836 837 832 825 822 819 816 816 815 812 809 806 803 799 794 789 785 779 774 771 766 761 756 752 748 743 739 735 730 726 723 719 717 715 712 710 710 711 710 711 710 707 706 708 704 696 696 703 708 710 712 713 714 716 718 720 721 723 724 726 729 729 729 730 730 730 731 731 730 730
861 861 863 871 877 881 885 878 861 842 835 837 837 834 834 837 838 835 827 823 824 822 819 816 813 811 809 804 799 795 790 786 782 776 772 768 763 759 755 750 746 742 737 733 729 725 722 718 715 712 709 707 707 707 708 709 707 704 705 703 694 691 697 704 706 708 709 710 711 713 714 716 718 720 721 723 725 726 727 728 728 728 728 728 728 728
860 854 851 861 869 869 866 857 842 834 836 839 838 837 837 836 834 832 828 825 822 820 818 815 811 808 807 803 798 792 787 784 779 774 769 765 760 756 752 747 744 740 736 732 728 724 721 717 713 710 706 704 703 703 704 704 702 702 701 695 690 694 699 701 703 705 707 707 708 710 711 713 715 717 719 720 722 723 724 725 725 725 726 726 726 726
856 856 853 858 861 859 854 847 840 838 839 840 839 838 836 833 832 832 830 827 822 819 818 815 810 806 803 800 796 791 786 782 778 773 768 763 758 754 750 746 742 738 734 731 726 722 719 715 712 708 704 701 701 700 700 699 699 698 694 688 690 695 696 697 700 702 702 703 705 707 708 710 712 714 716 718 719 720 721 722 722 723 723 723 724 723
860 862 860 857 856 855 851 843 842 843 840 837 837 836 834 833 832 830 828 825 822 818 816 814 810 806 802 798 795 790 785 780 776 771 766 761 756 752 747 743 739 735 732 728 723 720 717 713 710 706 702 698 697 697 695 694 694 691 686 684 689 691 691 694 697 698 699 700 701 703 705 707 709 711 713 715 716 717 718 718 719 720 720 721 721 721
862 863 861 858 858 859 852 842 844 846 842 837 836 834 832 831 829 829 827 824 820 817 814 812 809 805 801 798 794 790 785 780 775 771 765 759 754 749 745 741 736 732 728 725 721 717 714 711 707 703 700 696 693 691 690 688 686 683 680 682 685 686 687 690 691 692 695 697 698 700 701 702 704 707 709 711 712 714 714 715 716 716 717 717 718 718
863 861 861 861 862 861 853 845 845 845 841 839 837 834 831 829 825 825 825 822 820 817 813 810 808 804 800 797 793 789 784 779 774 769 763 757 752 747 743 739 734 730 726 722 719 715 712 709 705 701 697 693 688 686 684 682 679 677 677 678 680 680 682 683 684 686 689 691 694 696 697 698 700 702 704 706 708 709 711 711 711 712 712 713 714 715
866 863 863 865 864 861 854 848 846 842 837 836 837 836 834 830 826 823 822 820 818 816 812 809 806 802 799 795 791 787 782 777 772 767 761 754 749 744 741 737 732 728 724 719 716 712 709 706 702 698 694 689 685 682 679 676 673 672 672 673 673 674 675 676 676 678 681 684 688 691 692 695 696 697 699 701 703 704 706 706 707 708 708 709 711 711
868 865 866 868 868 864 857 851 849 847 841 835 835 835 833 830 827 824 821 819 816 813 810 806 801 797 794 790 786 783 778 772 768 763 757 751 746 742 738 734 730 725 721 717 713 709 705 702 698 695 691 685 681 677 673 671 668 667 667 666 667 668 669 669 671 673 675 678 681 684 686 690 691 693 695 696 698 700 701 702 703 704 704 705 706 708
869 867 867 869 868 864 856 851 852 852 846 838 835 834 831 828 826 822 819 817 813 810 807 804 799 794 789 784 780 778 773 767 762 758 753 747 741 737 734 731 727 722 718 714 709 704 700 697 694 691 687 681 676 672 668 666 664 662 661 661 661 661 662 664 667 669 671 673 675 677 680 684 686 689 691 692 694 695 696 697 699 700 701 702 703 704
Wind_Speed
3 5 3 2 4 4 4 4 4 3 3 3 3 2 4 3 5 6 5 5 1 2 7 6 5 8 7 9 10 8 7 9 10 9 9 9 8 8 9 10 11 11 13 18 23 26 25 24 21 19 17 14 12 12 12 12 11 11 10 11 12 13 15 16 17 18 18 17 15 15 14 14 16 17 18 18 16 16 14 13 14 12 12 13 12 12
5 6 2 6 7 5 2 3 3 2 3 3 3 2 3 3 6 6 3 5 3 3 5 3 6 10 9 10 9 7 8 11 13 12 12 11 9 9 10 12 12 10 11 13 18 22 23 22 20 20 18 15 14 14 14 13 12 10 10 12 12 14 14 15 16 16 16 15 13 13 13 13 15 15 15 14 13 15 14 13 15 13 13 14 12 10
5 2 6 7 5 5 4 4 3 3 5 3 2 1 3 3 5 6 3 4 4 2 6 6 9 12 8 7 8 8 10 10 10 12 11 10 10 10 11 12 10 10 9 10 14 19 22 22 21 21 19 17 16 14 14 13 11 11 11 12 12 13 14 15 16 15 15 14 12 13 13 13 14 13 13 13 13 15 15 13 15 15 14 15 14 11
1 3 6 4 6 6 2 4 5 4 3 2 3 2 3 3 1 4 4 5 4 2 4 6 8 11 7 3 5 7 8 6 5 8 8 8 11 12 11 10 10 12 12 11 12 16 20 21 22 22 21 19 16 15 15 14 12 11 11 12 12 13 14 16 16 14 14 13 12 13 14 13 13 12 11 12 14 16 17 15 15 15 14 16 16 12
2 4 2 5 4 5 3 3 5 5 3 2 4 4 3 3 3 6 4 6 6 2 2 4 6 7 5 4 5 4 3 6 5 6 9 9 10 9 8 10 12 12 12 11 12 13 17 21 23 24 23 20 17 16 16 14 12 11 11 12 13 13 15 16 15 14 13 12 12 13 14 13 12 11 11 12 14 16 18 19 18 18 15 15 16 15
1 2 2 4 5 5 3 1 1 3 2 4 4 6 6 5 6 6 5 6 5 3 1 1 3 5 5 4 7 3 3 8 4 5 12 11 9 8 10 12 12 11 11 11 12 13 17 21 23 24 23 20 19 17 16 14 12 11 11 12 13 14 15 15 15 14 13 12 13 13 14 13 10 10 10 11 13 16 18 19 20 20 19 15 14 14
1 2 2 4 4 6 4 1 3 4 4 2 3 5 5 3 5 5 3 1 1 3 2 2 2 4 6 5 6 3 5 9 6 8 13 11 9 9 11 12 11 10 11 10 12 14 16 20 21 23 23 22 20 18 15 13 12 11 11 12 13 14 14 14 14 13 13 13 14 14 13 12 9 9 10 11 14 17 16 17 19 20 19 14 11 12
2 2 4 4 5 5 3 1 4 6 5 3 2 4 2 4 6 5 4 4 3 3 3 2 3 3 6 5 4 3 5 9 8 10 12 11 12 12 12 13 12 12 11 10 11 12 16 20 22 23 23 22 20 17 15 14 12 11 11 12 12 13 13 13 13 13 13 14 14 13 12 10 9 9 10 12 14 15 15 16 17 16 14 11 10 10
0 0 0 3 4 2 1 3 6 7 3 5 4 2 3 4 4 3 5 4 1 3 4 3 2 1 6 6 3 4 4 8 10 11 11 11 12 12 13 13 13 12 12 11 11 12 16 21 24 24 22 21 19 17 16 14 12 11 11 11 12 12 12 12 12 13 14 14 13 12 10 10 9 10 11 13 14 14 15 16 14 12 11 9 7 6
0 2 3 4 3 2 4 3 6 7 3 4 2 1 1 2 2 3 4 3 2 3 4 4 2 0 5 6 3 2 2 7 9 9 9 10 9 9 11 12 12 11 10 10 11 15 19 21 23 22 20 19 18 17 15 13 12 11 10 11 11 11 11 12 12 13 14 14 12 10 10 10 10 11 12 13 13 13 14 14 12 11 9 7 6 5
1 1 2 3 2 3 2 2 4 6 4 4 4 2 2 3 3 3 2 3 3 2 6 5 1 2 3 6 4 3 4 6 7 6 7 8 8 9 9 10 10 10 9 9 10 14 18 20 19 18 18 18 18 17 15 14 12 11 11 11 12 12 12 12 13 14 14 13 11 10 9 10 11 11 11 11 12 13 12 12 11 9 8 8 8 8
4 1 1 2 1 2 2 1 1 2 1 3 4 3 3 3 3 3 4 3 2 4 5 3 2 1 2 6 5 5 7 6 6 7 9 9 9 9 8 8 9 9 9 8 7 10 13 14 15 16 18 19 18 17 16 14 12 11 12 12 13 13 13 13 13 13 12 12 10 10 10 11 11 10 10 11 12 12 12 11 9 8 8 10 11 11
3 3 3 3 1 2 2 2 3 3 4 4 3 4 4 4 4 3 3 1 2 5 3 2 2 1 6 9 9 10 11 9 8 9 9 10 10 9 8 8 8 7 7 7 7 7 9 11 14 17 19 20 20 20 17 15 13 13 14 14 14 15 14 13 12 10 12 12 12 11 11 11 10 10 11 12 12 12 11 9 8 8 10 10 11 12
3 4 2 1 1 1 3 2 2 2 3 3 2 3 2 2 4 3 3 3 4 5 3 1 2 3 5 7 9 12 12 9 7 8 9 9 10 9 8 7 6 6 7 7 7 7 8 12 16 19 21 22 22 20 17 15 15 15 15 15 15 14 13 11 10 10 12 12 12 12 11 11 11 11 12 12 12 11 10 9 8 9 8 8 9 9
1 4 2 2 1 1 2 3 3 3 1 1 3 3 2 3 1 3 3 2 5 5 4 2 1 3 3 4 7 9 8 6 5 7 6 8 9 7 6 6 6 7 7 6 7 8 10 14 18 19 21 22 22 20 17 17 16 16 16 16 15 14 12 11 10 11 12 13 13 12 12 11 11 11 12 12 11 10 10 9 9 9 8 8 8 9
1 5 3 1 1 2 1 2 3 4 2 0 2 3 1 3 4 1 3 4 2 4 4 2 3 5 4 8 8 3 5 7 6 6 5 8 9 5 6 9 8 8 7 7 8 8 11 15 18 19 21 22 21 19 18 18 18 17 18 17 15 14 12 11 11 12 12 13 12 12 12 12 12 12 12 12 12 11 10 10 10 10 10 11 12 12
0 4 4 3 1 2 1 2 1 2 1 1 1 2 3 3 5 3 1 1 3 1 4 2 4 5 4 8 8 5 5 7 6 5 6 9 8 5 7 10 9 9 8 8 8 8 10 14 17 20 21 21 21 20 20 20 19 19 19 17 15 13 13 12 12 12 13 12 12 12 12 12 11 11 12 11 11 11 11 10 11 12 12 13 13 13
1 4 5 1 1 1 0 2 2 2 2 3 1 3 2 2 4 4 1 3 4 2 5 1 4 6 4 4 7 6 6 8 8 7 7 8 8 7 10 11 10 10 9 8 8 8 10 14 17 20 22 22 22 22 21 20 20 20 19 17 15 14 13 13 13 13 13 13 13 13 12 12 11 11 11 9 9 10 10 10 11 12 12 12 12 12
2 2 6 1 1 3 3 2 2 3 2 3 2 2 2 1 1 1 1 1 2 3 5 4 4 4 4 5 5 5 6 8 8 7 7 9 9 9 10 11 11 10 8 8 8 8 9 13 18 20 22 23 22 22 21 20 20 21 19 17 15 14 14 14 14 14 14 13 13 13 12 12 12 11 11 10 9 10 10 10 11 11 11 11 10 10
2 1 4 2 2 3 3 1 2 1 2 3 1 1 2 2 3 1 1 2 1 2 4 4 4 3 7 7 5 7 9 8 9 8 8 10 10 9 9 9 9 8 8 8 8 8 9 14 19 21 23 24 23 22 21 21 22 22 20 17 15 14 14 14 14 15 14 14 13 13 12 12 13 13 13 12 11 12 12 12 11 11 11 10 10 10
2 2 3 4 3 1 1 3 5 5 3 2 0 1 1 0 2 1 1 3 3 2 3 3 4 7 7 4 6 9 10 9 9 8 9 10 9 9 9 9 8 8 8 8 8 8 9 14 18 21 22 23 22 21 23 24 24 22 20 18 16 16 16 16 16 15 15 14 13 13 12 13 14 15 14 14 14 14 14 13 12 12 12 11 12 13
1 2 3 3 3 2 4 4 4 5 5 5 4 4 4 3 3 0 3 1 2 2 4 2 5 11 7 3 6 8 8 8 8 8 9 10 10 10 9 9 9 8 9 9 8 8 9 12 17 19 21 21 21 23 24 25 25 23 21 20 18 17 17 17 17 16 15 14 14 14 13 14 15 15 15 15 15 14 13 12 12 13 13 13 13 14
2 3 1 4 5 5 5 2 2 4 4 4 3 3 3 4 5 4 3 3 1 1 2 3 2 10 5 4 5 6 6 7 7 6 8 10 10 10 10 10 9 9 9 9 8 7 9 13 16 18 20 21 23 25 26 26 26 24 23 21 19 19 19 18 17 16 16 15 16 16 15 15 16 15 15 15 15 15 14 14 14 14 14 14 14 14
2 2 0 4 5 3 3 3 2 1 2 1 2 2 4 3 3 5 5 3 2 3 2 2 4 10 5 1 3 4 3 6 7 7 9 10 10 10 11 11 9 9 10 9 8 7 9 12 14 16 18 21 23 25 26 27 26 25 24 22 21 20 19 18 18 17 16 16 17 17 16 17 17 16 16 16 16 16 16 16 16 15 14 14 14 14
1 1 1 3 6 6 6 5 4 3 0 3 4 2 3 4 6 3 2 2 1 5 7 4 7 10 4 3 3 4 6 8 10 9 8 8 10 11 10 10 9 9 9 9 9 8 8 10 11 15 18 21 23 25 26 27 27 26 25 24 22 21 20 19 18 17 17 17 18 18 18 18 18 18 18 17 17 16 16 16 16 15 15 14 13 12
2 2 2 1 3 4 5 5 3 3 1 2 2 3 4 5 7 3 1 3 3 5 6 6 9 11 9 10 12 11 10 12 15 13 9 8 9 10 10 10 8 8 9 10 10 9 9 9 11 15 19 21 23 25 26 27 27 26 26 25 23 21 20 20 19 19 18 18 19 19 19 19 19 18 18 17 16 16 16 16 16 16 15 13 12 11
1 1 3 5 6 7 8 7 2 2 1 5 5 5 6 5 6 5 3 3 5 2 3 9 12 14 18 19 17 14 13 15 16 15 14 11 10 11 11 10 9 9 10 10 9 9 9 10 11 15 19 22 24 26 27 28 28 27 27 26 24 22 21 21 20 20 20 20 20 21 21 20 19 18 18 17 17 16 15 16 16 17 15 13 12 12
3 3 5 7 9 12 12 10 2 1 5 9 10 7 7 7 6 7 7 8 4 3 8 12 8 8 17 19 16 16 16 16 15 16 16 14 12 12 12 11 11 11 10 8 9 10 11 12 12 14 19 23 26 27 28 29 29 28 28 27 25 23 23 22 21 21 21 21 21 22 22 21 19 18 18 18 17 16 16 16 17 16 14 13 13 13
4 3 4 4 8 12 12 11 7 5 7 9 11 10 7 8 10 12 16 12 7 5 14 14 6 8 15 18 17 18 17 16 16 16 16 14 14 14 14 13 13 13 11 10 11 11 12 13 12 13 18 23 26 28 28 29 29 28 28 27 26 24 24 23 23 23 23 23 24 23 22 21 20 19 18 18 17 17 17 17 17 15 14 14 14 14
4 3 3 2 6 11 12 10 7 5 7 8 11 11 9 10 14 15 17 13 8 11 18 18 17 17 17 18 19 19 16 13 13 14 15 16 16 16 16 15 14 14 13 11 12 12 12 14 13 14 16 19 24 28 30 30 31 31 30 30 27 26 25 24 24 24 25 25 25 24 22 21 20 20 19 18 18 17 17 17 16 15 15 15 15 14
1 3 1 3 4 9 7 6 3 4 6 9 14 12 8 10 11 12 12 9 6 11 17 16 15 16 16 15 15 14 12 10 11 14 17 17 16 16 17 16 16 16 15 13 13 12 12 13 13 13 15 19 26 31 33 33 33 33 32 31 30 28 26 25 25 26 27 27 26 24 22 22 21 21 20 19 17 17 17 16 15 15 15 15 15 14
1 2 2 5 4 6 3 6 6 7 7 10 14 11 4 7 7 7 7 6 7 9 11 9 8 10 11 10 9 10 11 11 13 16 18 19 18 18 17 17 18 17 16 15 14 12 12 14 14 13 16 22 26 31 35 35 34 33 34 33 32 29 27 26 27 28 28 28 26 25 23 23 22 22 21 19 17 17 18 17 16 15 15 16 16 15
3 1 2 3 2 6 4 5 7 8 7 7 7 3 4 6 5 4 5 7 9 7 4 5 6 9 10 11 13 15 15 14 14 15 17 19 20 20 18 17 17 17 17 16 15 14 13 13 14 17 21 24 27 33 38 37 36 36 36 34 32 29 27 27 28 29 29 28 27 26 24 23 23 23 22 21 19 18 18 18 17 16 16 16 16 16
3 3 1 1 1 6 7 8 7 4 3 5 3 4 4 5 6 6 7 10 9 7 5 7 8 11 13 13 15 17 17 15 14 15 17 17 16 17 18 17 16 17 17 17 17 16 13 13 16 20 24 27 30 34 37 37 37 37 35 32 30 29 28 29 30 30 30 29 28 26 25 24 24 24 23 22 20 20 19 19 18 18 17 16 16 15
4 3 1 1 1 4 5 7 6 2 5 5 2 2 4 6 7 7 9 13 9 5 8 10 11 13 13 13 14 15 17 17 15 16 18 16 13 12 14 17 18 20 20 20 20 19 16 15 17 20 24 28 30 31 32 35 36 34 31 30 30 29 29 30 30 31 30 30 28 27 26 25 25 25 24 22 21 22 22 21 20 19 17 16 16 16
6 4 2 2 1 3 3 3 1 6 8 7 4 2 2 2 2 2 7 12 8 1 4 8 10 12 14 15 14 14 16 17 15 13 12 11 10 10 12 17 19 20 20 20 20 21 22 22 23 24 26 27 27 28 32 35 34 32 31 30 30 29 29 30 30 31 31 30 29 27 27 27 26 25 24 23 22 23 23 22 21 19 18 17 17 17
6 5 2 1 1 1 1 2 4 6 10 7 3 1 1 2 4 3 5 9 7 3 4 10 15 17 17 16 16 16 17 16 14 10 7 8 12 15 17 18 19 19 20 22 25 28 30 32 30 28 27 25 24 29 33 33 31 31 30 29 29 29 29 30 32 33 32 30 30 29 28 27 27 27 25 24 24 24 24 23 21 20 18 18 18 18
3 3 3 2 1 1 1 4 4 5 5 5 3 3 2 2 2 1 2 6 5 5 11 15 17 19 18 17 18 18 15 14 13 11 10 14 17 18 18 18 20 22 23 25 29 31 34 35 31 27 25 22 25 30 32 30 29 29 29 30 30 29 29 31 34 35 33 32 31 30 29 28 28 27 26 26 25 25 25 23 21 20 19 18 19 19
5 3 4 2 2 1 3 1 3 2 5 6 5 5 3 2 3 1 1 5 5 11 16 16 16 18 17 16 17 15 12 11 13 13 14 19 20 19 18 18 22 26 29 30 30 30 34 35 29 24 21 21 27 31 29 28 28 27 28 30 31 30 31 34 37 37 35 34 32 30 29 28 28 28 27 27 26 26 25 23 21 20 19 19 19 19
5 4 3 1 3 1 2 2 3 4 6 6 5 6 5 2 3 4 5 6 8 13 14 13 16 18 16 15 14 12 9 10 12 15 19 21 21 20 21 20 21 24 29 32 33 33 34 32 26 22 21 24 31 30 25 27 28 27 29 29 28 31 37 40 40 38 35 33 30 29 29 28 28 28 28 27 27 26 24 22 21 20 20 20 19 19
2 1 1 2 3 3 3 3 3 5 6 6 6 6 4 1 2 5 6 8 11 16 14 13 15 15 15 15 12 9 10 11 14 17 19 19 19 20 23 25 26 28 29 31 33 33 31 28 25 23 26 31 31 25 24 27 27 28 30 27 26 35 44 43 38 35 32 31 29 28 29 28 28 28 28 27 26 25 23 22 21 21 20 20 19 18
1 0 0 2 2 2 3 2 4 5 4 3 4 5 3 3 4 5 7 8 12 15 15 14 14 13 14 14 12 11 13 15 17 18 17 17 18 17 19 23 25 27 30 32 33 32 28 26 25 25 29 32 29 25 26 26 27 29 28 25 30 43 45 38 34 32 30 30 29 29 29 28 28 28 27 26 25 24 23 22 21 21 20 19 19 19
3 2 1 2 3 1 1 0 2 4 3 2 4 5 4 5 5 7 8 10 10 11 13 13 12 12 12 14 15 16 17 17 18 18 17 18 18 17 18 21 21 22 27 29 31 32 29 25 24 26 30 31 27 26 26 26 29 30 25 28 41 45 36 31 32 31 30 30 29 29 28 28 27 27 26 25 24 23 23 22 21 21 20 19 19 19
3 2 2 3 2 1 1 2 3 4 5 3 4 6 6 5 5 6 9 11 10 9 10 10 12 13 13 14 16 18 18 18 18 19 19 19 18 17 18 20 21 24 26 27 29 32 29 24 24 28 31 30 26 26 26 28 30 28 27 36 44 35 27 29 30 29 30 30 29 28 28 27 27 26 25 25 24 22 22 22 21 21 21 20 19 19
2 3 2 2 3 2 3 6 5 6 8 4 3 6 9 7 6 7 8 9 10 9 9 9 13 16 15 15 17 17 16 17 18 19 19 19 19 18 19 21 24 25 26 28 30 32 30 26 25 27 30 31 27 24 27 30 30 29 33 41 37 26 26 31 29 28 31 31 29 28 27 26 26 25 25 24 23 22 22 21 21 21 21 20 20 19
2 1 1 1 3 4 5 6 6 7 10 11 8 7 7 6 7 8 9 10 10 10 10 10 13 15 16 16 16 16 16 18 19 19 19 19 19 19 20 22 25 27 28 28 29 32 31 29 27 25 26 31 30 25 27 31 31 33 40 40 30 24 28 30 29 30 30 29 29 28 26 25 25 25 24 24 23 22 22 21 20 21 20 20 20 19
2 1 1 1 4 5 4 7 8 9 12 15 13 9 8 10 10 9 9 10 11 12 13 13 14 15 16 16 16 16 18 19 18 18 18 18 18 19 18 19 23 27 29 29 30 33 31 28 26 25 24 28 31 27 26 29 32 38 41 36 28 26 28 29 31 31 30 29 29 28 26 26 25 24 24 24 23 23 22 21 21 21 20 20 20 19
3 2 3 3 4 5 7 10 11 10 11 10 9 9 12 14 15 13 11 10 11 13 15 16 16 15 14 15 17 17 18 18 18 18 17 16 17 17 16 18 23 27 30 32 33 33 30 26 26 27 25 27 32 31 27 28 32 37 38 35 30 29 29 31 33 33 31 30 29 28 27 27 26 25 25 24 23 23 22 21 21 22 22 22 21 20
2 3 3 3 4 6 8 10 12 13 10 7 6 10 12 13 16 17 14 12 13 14 15 17 18 17 15 15 15 15 16 17 16 17 18 17 16 17 18 22 27 29 30 32 33 32 29 27 27 28 28 30 34 33 29 29 32 34 34 34 33 31 31 33 34 34 33 31 29 28 27 26 26 26 25 24 24 23 23 22 21 22 24 25 24 23
4 4 3 3 4 6 8 10 11 11 10 9 10 14 14 14 15 15 13 13 15 15 15 16 19 20 20 21 18 15 15 16 16 17 18 16 16 18 22 25 28 29 31 32 33 31 30 29 29 30 30 33 35 33 31 31 32 32 31 32 33 34 35 36 35 34 33 31 30 29 28 26 27 26 25 24 23 22 21 21 20 20 22 24 24 22
3 4 3 3 5 8 11 11 9 7 9 12 15 16 15 14 13 13 14 15 15 15 15 15 17 19 20 22 25 22 17 17 20 20 18 17 20 24 26 28 29 29 31 33 31 28 27 29 32 32 32 35 36 34 32 32 32 31 30 30 32 35 37 37 36 34 33 32 32 31 29 28 27 26 25 24 23 21 20 19 19 19 20 21 21 21
Wind_Direction
68 62 54 151 197 229 236 190 148 138 156 150 139 180 239 260 275 268 273 285 345 333 265 228 240 257 253 240 222 208 199 214 230 230 233 230 224 225 224 230 229 230 238 234 234 234 232 233 230 227 232 240 245 244 243 247 253 264 283 299 304 313 320 323 324 323 320 318 318 319 321 324 327 331 332 330 330 329 330 343 346 344 351 342 326 318
57 78 156 214 203 194 193 163 127 101 121 125 153 204 291 246 261 269 264 293 352 5 278 286 300 271 246 242 229 184 191 216 221 221 230 227 225 228 226 232 232 237 245 240 240 238 235 232 226 226 231 235 240 239 239 243 251 266 287 298 305 314 317 320 321 316 311 312 311 311 314 319 322 328 331 329 328 323 323 344 345 340 353 355 349 342
41 105 218 222 175 127 84 84 93 114 120 107 136 126 306 265 280 295 302 315 353 351 293 332 325 289 264 246 229 195 203 221 220 221 230 225 225 231 228 232 235 240 245 239 240 238 233 227 223 227 230 233 241 240 236 239 251 271 287 297 305 310 312 316 315 308 302 304 304 304 309 314 317 322 325 322 320 318 317 332 340 338 349 354 354 358
56 233 227 193 141 132 101 40 67 83 89 107 134 137 278 291 347 289 302 327 321 276 276 319 317 290 295 307 254 220 217 248 254 237 242 230 228 234 232 232 230 233 237 235 239 235 229 224 222 225 228 231 236 234 233 239 254 273 284 295 302 304 309 312 308 299 293 296 297 300 305 309 313 313 313 314 316 318 318 320 325 331 343 350 347 349
195 228 158 91 94 137 150 8 54 71 3 303 179 170 231 266 228 236 286 326 321 323 247 301 315 288 312 340 286 267 243 261 265 255 257 243 236 245 250 245 234 232 234 232 237 232 224 223 223 224 227 231 233 232 235 242 256 270 282 294 298 303 309 306 298 292 288 288 292 297 301 302 303 304 306 311 315 319 320 317 316 316 326 343 344 340
181 225 132 81 49 71 114 323 80 117 4 311 231 194 211 251 248 255 316 348 346 347 263 12 351 293 308 305 271 306 297 259 249 250 256 251 242 243 246 246 239 235 236 233 238 233 224 225 225 226 228 230 231 234 238 245 256 268 283 292 296 304 306 297 290 288 283 282 289 293 294 294 293 295 303 310 312 316 317 314 311 308 310 323 336 337
187 359 58 117 86 61 79 201 225 139 93 316 248 183 188 240 262 264 290 20 306 274 268 81 121 264 305 300 273 315 294 269 266 253 255 256 247 236 238 244 238 235 237 235 239 236 227 226 225 226 228 229 231 235 237 243 253 267 282 290 297 303 297 287 285 282 278 283 289 288 285 287 285 290 302 307 310 314 312 308 305 305 308 311 320 329
202 20 41 77 78 67 73 182 208 140 113 251 219 128 185 263 265 248 189 191 242 278 319 21 138 231 294 282 280 331 299 283 279 261 256 252 244 239 239 241 237 233 231 231 237 232 227 227 225 226 231 233 233 233 234 239 251 267 280 290 297 296 286 282 282 279 282 287 286 281 277 279 282 293 302 307 311 311 306 304 304 308 312 313 315 322
182 234 228 103 82 77 210 201 179 146 138 244 199 154 287 259 232 190 152 190 286 1 320 306 127 214 273 271 322 2 307 287 278 263 258 251 243 240 240 240 238 235 232 230 234 232 228 227 226 231 237 235 230 228 232 238 250 266 279 291 293 284 277 277 279 283 287 284 276 272 274 281 290 298 303 307 310 306 302 304 308 314 318 320 322 321
124 228 207 142 136 218 233 213 167 159 214 266 192 160 10 73 117 111 125 153 51 18 269 246 148 148 273 276 313 17 272 264 263 262 259 255 251 241 239 242 239 238 238 232 233 235 233 230 230 234 236 229 224 225 231 238 248 264 278 284 281 274 270 270 276 285 284 273 265 267 276 286 294 302 304 306 305 302 301 303 308 314 314 312 316 317
326 267 191 136 173 201 210 223 170 177 238 324 9 21 31 50 61 68 90 97 66 316 260 241 196 101 295 280 246 207 219 216 228 261 270 267 266 252 240 241 238 237 238 233 234 237 236 234 233 232 226 220 219 222 226 234 247 262 270 271 269 263 260 265 279 288 278 263 261 268 276 284 294 300 299 296 296 295 294 296 300 301 296 298 305 310
345 349 240 275 237 135 63 4 169 186 312 19 31 20 1 347 29 28 352 45 87 271 262 254 282 121 232 265 245 236 248 221 208 246 263 266 267 259 245 240 237 236 238 236 234 234 230 228 225 218 215 214 213 216 222 233 245 254 258 260 259 256 260 272 287 286 266 255 259 267 274 283 291 293 286 284 285 287 287 284 282 283 291 300 304 308
306 235 266 321 276 130 79 360 339 355 30 44 46 43 23 345 4 360 322 342 211 248 239 217 311 265 230 253 257 258 263 248 224 228 244 256 262 259 248 240 240 237 238 237 232 229 220 216 213 208 209 210 211 216 224 232 240 246 252 254 252 256 267 279 285 272 254 254 260 266 274 282 286 284 280 280 279 280 275 267 267 282 295 302 305 308
324 295 313 349 277 95 114 127 312 328 22 29 76 91 80 47 12 316 286 304 275 270 264 230 316 286 269 271 248 242 253 251 232 231 238 248 254 256 251 248 253 247 238 234 231 227 219 214 211 209 211 211 213 219 226 231 237 244 248 248 249 259 268 273 272 260 254 256 259 267 275 277 279 278 278 278 276 270 259 259 274 286 292 297 299 299
337 297 282 173 224 27 107 160 170 157 90 12 158 129 130 143 148 263 240 258 285 292 293 296 253 217 234 274 234 223 252 263 245 243 248 255 254 255 269 271 263 252 243 234 231 228 225 220 214 212 213 213 215 221 226 229 235 240 242 243 248 257 261 262 263 258 254 255 259 267 271 273 274 274 276 275 268 258 256 266 277 277 277 279 280 283
181 262 269 294 240 106 110 181 130 107 92 238 151 116 163 170 154 198 200 198 264 316 296 261 237 216 222 276 274 263 282 274 259 256 259 264 260 255 268 265 254 250 243 232 231 232 229 223 217 214 213 214 218 221 224 228 232 235 237 241 248 254 256 258 258 254 254 256 260 265 269 274 272 269 273 270 259 257 263 266 268 270 276 279 282 286
76 279 293 344 4 85 128 197 112 69 152 127 118 190 231 164 121 111 265 323 65 343 280 237 254 282 316 296 298 351 325 293 288 279 262 263 271 268 259 258 252 248 242 232 230 231 228 221 217 216 215 215 217 219 223 228 232 234 236 239 245 250 251 252 251 251 253 254 257 262 268 270 263 263 271 264 252 253 257 260 269 277 283 287 289 287
144 282 297 34 101 319 255 160 37 18 130 118 184 218 207 98 89 93 318 345 36 268 272 249 253 287 333 303 310 343 314 289 287 284 279 276 274 262 255 256 253 248 244 240 237 234 231 223 217 217 217 218 219 221 225 230 232 233 234 238 243 246 246 246 247 250 251 250 254 262 267 263 256 260 262 250 243 250 255 265 275 279 282 284 283 281
123 283 300 5 183 302 357 74 347 341 82 123 197 197 106 148 259 47 143 308 352 287 285 294 275 267 232 239 282 291 266 271 281 286 288 278 264 255 256 258 256 253 248 244 239 235 230 223 219 216 216 218 219 222 227 229 229 229 231 237 243 247 248 247 245 244 245 249 255 260 262 258 254 252 246 239 245 257 265 271 272 272 273 271 271 275
107 149 284 286 229 301 4 82 241 286 51 52 20 359 40 155 183 186 167 172 186 265 287 312 328 265 229 211 219 253 263 273 281 283 277 267 259 255 255 257 257 250 244 241 236 233 227 222 220 217 216 217 218 222 226 225 224 225 230 235 240 242 242 241 239 240 243 250 254 253 249 247 246 243 242 246 255 265 272 272 266 263 261 261 266 271
74 137 250 295 311 290 258 208 198 182 152 107 105 257 303 124 152 220 240 143 144 180 236 296 306 270 250 199 202 250 272 272 266 265 265 266 265 262 256 255 256 248 243 241 234 231 226 221 221 219 218 219 219 222 223 222 223 225 229 233 236 237 235 235 236 239 244 246 247 246 243 242 243 243 246 257 266 272 273 267 258 254 256 260 265 268
117 160 211 287 304 239 236 236 192 179 167 156 179 200 189 151 124 182 288 285 117 167 191 184 284 277 271 161 198 242 260 263 260 252 261 272 271 270 265 253 249 247 245 241 232 228 222 219 219 217 216 216 216 217 218 220 222 224 228 232 234 234 233 234 235 237 241 243 243 244 242 241 242 245 252 262 269 271 265 257 253 255 260 263 264 269
142 113 150 266 261 237 250 278 140 173 159 144 186 193 154 138 132 152 234 256 175 195 180 117 264 273 272 137 189 233 242 258 265 253 262 275 275 274 274 264 254 250 250 244 234 228 221 219 218 214 213 213 214 216 217 219 221 224 228 231 232 232 232 234 236 239 241 242 243 244 243 241 243 248 256 262 267 264 257 253 257 261 263 263 267 273
111 90 41 277 289 301 310 350 42 93 107 153 236 167 146 161 144 155 182 191 194 207 168 95 265 268 292 90 205 237 265 278 279 263 260 272 280 278 273 271 264 257 256 249 239 232 223 221 216 212 212 212 214 216 217 218 220 224 228 229 230 232 233 235 236 238 238 239 241 243 241 240 242 249 256 261 264 260 255 257 261 262 262 265 271 275
248 177 104 325 323 332 342 354 348 338 140 225 246 195 168 129 101 112 154 108 283 222 174 161 257 260 288 342 280 295 318 302 288 275 257 258 275 280 277 276 268 261 261 252 240 233 222 218 214 213 215 214 215 217 217 219 221 223 226 228 230 232 233 234 235 235 236 237 239 242 240 239 244 250 256 261 261 257 255 259 260 260 263 269 273 274
234 193 146 190 281 291 300 302 287 272 243 237 233 199 198 154 139 163 145 114 244 236 169 177 250 271 296 305 298 305 314 306 300 299 289 268 269 276 279 278 270 262 259 250 240 230 223 222 219 218 219 218 218 218 217 219 221 223 226 228 231 233 232 232 232 232 233 234 237 240 240 241 246 250 255 259 257 253 255 256 257 261 267 270 270 270
100 236 212 200 210 232 254 256 211 118 279 274 263 221 201 194 169 134 107 177 200 192 207 225 244 278 293 292 295 305 307 303 303 306 306 299 291 287 283 281 276 265 257 250 242 233 229 228 225 223 222 220 220 219 219 220 221 223 225 227 230 232 232 231 230 229 230 232 235 239 240 242 245 248 252 255 254 252 252 252 256 264 269 267 265 267
95 287 246 209 228 245 257 267 287 13 273 266 269 248 199 191 170 157 202 222 157 114 268 254 225 252 278 282 291 300 299 299 302 303 304 304 301 296 291 286 281 273 264 254 242 235 233 232 230 227 224 222 221 221 221 222 224 225 227 228 229 229 230 229 228 228 229 231 233 237 241 243 244 246 250 252 251 249 248 251 258 266 268 264 264 268
127 258 245 197 249 264 268 276 278 270 263 261 266 259 217 188 182 197 225 225 165 196 259 268 253 252 272 283 290 291 291 296 301 301 301 301 299 296 293 290 286 282 275 260 247 240 236 236 235 229 225 223 220 220 220 220 222 225 226 227 228 227 228 228 227 228 228 229 233 237 241 243 242 244 247 248 247 245 244 249 258 263 264 263 266 270
148 247 251 172 279 278 275 280 273 254 267 273 266 252 220 204 202 212 234 234 210 236 258 271 279 278 278 279 281 285 289 295 299 299 300 302 303 301 298 298 295 291 285 272 258 248 240 239 239 233 228 223 218 218 218 217 219 220 222 224 225 225 227 226 226 226 226 228 233 238 240 240 240 241 243 243 242 240 241 247 253 258 259 262 267 271
194 268 265 95 308 285 288 323 323 245 249 270 276 267 229 214 218 226 244 247 232 250 261 271 281 280 274 272 274 281 292 302 304 304 305 305 306 307 306 304 300 295 292 283 269 258 248 243 242 236 229 224 221 218 217 217 218 219 220 222 223 225 226 225 224 225 225 228 233 236 237 237 238 238 239 240 238 236 239 244 248 252 257 263 267 270
178 277 5 50 340 288 319 5 332 295 276 272 285 290 224 191 210 227 235 219 203 238 269 284 283 274 275 287 294 293 301 311 311 310 310 310 312 313 310 304 301 298 296 292 283 269 256 248 242 236 231 228 224 219 217 217 216 216 218 220 223 225 224 223 224 224 225 228 232 234 234 234 234 234 235 237 234 233 237 241 243 247 254 261 266 270
144 150 4 38 318 276 300 335 315 319 323 292 279 265 175 187 223 243 250 230 207 209 263 274 263 277 299 315 314 312 317 320 317 314 309 308 312 312 306 302 301 300 299 299 294 282 268 255 245 237 234 231 226 222 220 217 215 216 219 221 222 223 221 221 224 224 224 227 230 231 232 232 231 231 233 234 233 234 237 238 239 243 250 258 265 269
122 115 175 182 247 273 296 321 327 341 319 272 223 170 198 239 238 232 264 265 233 201 233 268 283 296 307 314 313 315 317 315 314 308 301 303 306 304 303 305 307 307 307 307 304 294 280 265 255 246 239 236 232 228 224 220 219 222 223 221 220 219 219 221 223 224 224 226 229 230 231 230 229 229 232 234 233 235 237 237 239 244 250 257 262 265
130 125 193 186 186 267 304 349 356 289 239 257 267 217 241 241 216 212 258 275 265 223 242 269 285 292 302 312 312 311 311 311 311 302 296 296 293 292 304 312 316 318 316 314 313 308 297 280 264 251 244 240 235 229 222 219 221 222 220 218 216 216 218 220 222 222 224 226 228 229 229 228 229 229 231 233 233 235 238 239 242 245 248 253 256 261
141 146 179 176 188 276 334 29 330 271 284 305 329 309 279 277 279 290 288 289 300 307 248 275 296 308 317 320 315 315 315 313 309 297 289 291 298 310 318 317 318 318 314 313 312 308 304 294 277 261 252 245 236 226 220 219 219 217 215 215 214 215 217 218 220 221 224 225 227 228 228 228 228 228 230 232 232 234 238 240 243 245 246 250 255 261
136 141 183 242 217 196 227 247 263 309 323 327 348 355 331 328 319 318 294 294 311 17 348 332 333 330 328 325 323 324 322 318 313 307 313 327 328 327 322 316 316 314 310 311 309 306 305 298 286 273 263 250 237 228 222 219 216 212 212 213 212 214 215 215 219 221 223 226 227 228 229 229 229 229 231 232 232 234 237 240 244 246 247 250 254 260
112 147 172 197 257 100 72 301 317 351 322 277 268 294 281 228 239 212 247 278 298 2 358 347 338 330 329 330 328 328 330 327 317 312 327 334 330 325 322 319 319 318 316 316 313 311 309 304 294 281 269 254 244 237 227 218 213 209 210 212 212 213 214 215 220 222 223 226 229 229 230 230 230 231 232 232 233 234 237 241 246 248 249 250 254 259
41 37 110 121 309 42 96 268 275 265 255 250 265 300 308 214 192 86 344 269 305 353 353 344 334 328 328 328 326 330 334 325 311 310 323 328 325 325 325 323 323 324 325 324 322 318 312 308 300 286 271 255 249 244 230 218 214 209 210 215 214 213 215 218 223 224 224 227 230 231 231 230 229 231 233 234 235 236 238 244 248 250 251 253 257 262
33 20 65 144 258 203 145 222 249 244 259 277 298 310 308 206 151 31 340 288 319 345 345 337 330 326 324 323 324 325 320 310 304 308 317 321 321 322 324 324 325 326 327 327 327 323 316 309 298 282 268 258 255 250 231 218 215 211 215 219 214 215 221 225 228 227 225 227 230 231 232 231 229 231 234 236 238 239 242 247 251 251 253 256 259 262
58 34 86 172 209 201 189 227 271 263 264 288 298 287 277 222 75 16 321 300 326 335 332 331 326 319 318 320 318 312 304 299 298 302 309 315 317 319 321 322 323 324 325 325 325 323 319 311 298 282 273 268 263 254 235 221 215 216 222 220 215 224 230 231 232 230 226 226 229 230 230 231 230 231 234 238 240 242 245 249 251 251 254 259 260 260
150 128 58 147 182 199 179 201 292 287 265 281 282 270 298 360 351 318 300 310 324 323 321 323 319 315 316 313 307 302 301 300 301 303 307 312 313 314 317 319 322 324 324 325 326 325 321 313 302 290 282 278 270 255 240 226 218 224 226 219 225 235 236 233 231 229 225 225 228 229 229 230 231 232 234 237 239 242 247 251 251 253 257 259 259 259
186 184 255 211 191 156 66 48 308 283 261 310 330 331 2 355 311 296 307 315 314 313 314 315 312 313 314 308 305 306 307 307 309 310 311 313 314 314 315 317 320 320 321 322 323 324 323 315 304 296 291 287 274 258 244 228 226 231 228 227 238 241 236 230 230 227 225 226 227 228 229 229 231 232 233 235 237 241 248 252 252 254 257 257 257 258
196 182 289 265 208 110 62 227 245 289 299 347 7 338 323 308 294 304 314 312 311 315 314 311 312 313 312 309 309 310 310 312 313 314 315 316 315 315 316 317 318 318 318 319 319 321 323 316 306 301 299 294 279 261 247 234 232 235 233 239 246 245 231 228 230 225 224 226 226 226 227 227 230 231 232 234 236 240 246 251 254 256 257 255 254 255
231 196 202 236 225 214 238 244 264 310 318 329 338 308 301 296 291 299 304 305 311 317 317 317 316 314 315 315 312 311 313 313 314 314 314 313 313 314 314 315 315 314 315 317 318 320 322 318 310 304 301 299 288 268 253 243 235 236 242 247 250 243 230 227 225 221 222 224 223 223 224 225 227 229 231 234 235 239 245 250 253 256 256 254 251 251
289 145 123 239 276 277 265 272 298 324 321 318 317 305 300 306 307 310 313 311 311 314 316 315 312 311 315 317 314 313 313 312 313 313 312 311 312 312 312 312 313 314 315 316 318 320 322 321 316 308 302 302 298 280 261 251 240 239 248 252 248 238 231 224 218 219 221 220 221 221 220 221 223 225 229 232 235 240 245 249 253 255 256 254 249 248
323 12 25 326 316 317 310 308 321 327 315 314 319 317 315 317 317 317 316 311 312 316 316 315 315 314 314 314 312 311 309 309 310 309 308 308 309 310 312 312 313 315 316 316 317 319 320 321 318 311 304 303 303 294 274 258 249 248 252 253 246 238 230 220 216 218 218 218 219 218 217 219 220 221 225 228 233 239 243 248 251 251 250 248 245 243
325 355 356 347 324 302 289 293 304 305 294 295 313 323 323 323 321 319 316 311 312 315 314 314 315 314 312 310 309 306 304 304 305 305 305 306 307 309 312 313 313 315 316 315 316 317 317 316 314 311 306 301 303 301 287 269 260 258 254 249 243 236 226 218 216 216 216 217 216 215 217 219 218 219 223 226 231 236 241 245 248 246 244 243 242 242
323 354 340 326 304 285 285 299 315 316 301 288 312 321 317 316 315 314 315 314 314 314 312 312 311 308 304 302 299 298 298 298 299 301 304 305 306 309 311 312 313 314 313 314 315 314 313 312 310 308 305 301 300 300 293 281 273 267 257 246 240 232 223 218 216 213 213 213 212 212 216 217 217 219 221 224 230 235 242 247 247 245 245 245 245 248
4 356 333 339 332 312 306 313 323 320 306 301 316 316 311 309 309 308 311 315 315 315 313 312 310 308 305 304 302 301 299 298 299 301 301 300 303 308 310 312 313 312 312 313 312 310 309 310 310 308 304 301 299 297 293 288 282 274 261 248 238 229 223 218 213 209 209 208 207 209 211 212 216 218 218 222 228 232 241 248 247 243 246 250 252 253
3 338 326 338 318 297 296 302 306 301 293 300 311 313 311 312 311 309 312 314 311 310 311 311 310 310 310 310 310 309 305 303 305 304 301 301 304 307 311 314 313 312 311 311 308 306 309 313 314 312 307 304 301 298 294 291 288 279 266 252 239 230 224 218 210 205 205 205 205 207 208 209 213 215 217 221 226 229 237 245 246 242 242 248 254 255